EW5980 Weather Reports


Display with metric or nautical units.
time (UTC)temp
F
wind
direction
speed
MPH
gust
MPH
rain 1hr
in
rain 24hr
in
rain mn
in
humidity
%
barometer
mb
20260902210100 94 0.0 0.0 0.00 0.00 0.00 52 1015.6
20260902204554 94 0.0 0.0 0.00 0.00 0.00 54 1015.7
20260902203111 94 0.0 0.0 0.00 0.00 0.00 54 1015.7
20260902201550 94 0.0 0.0 0.00 0.00 0.00 52 1015.9
20260902200100 95 0.0 0.0 0.00 0.00 0.00 52 1016.0
20260902194555 95 0.0 0.0 0.00 0.00 0.00 52 1016.3
20260902193055 95 0.0 0.0 0.00 0.00 0.00 53 1016.4
20260902191559 96 0.0 0.0 0.00 0.00 0.00 51 1016.7
20260902190058 97 0.0 0.0 0.00 0.00 0.00 50 1016.8
20260902184600 98 0.0 0.0 0.00 0.00 0.00 47 1016.8
20260902183102 97 0.0 0.0 0.00 0.00 0.00 50 1017.1
20260902181549 96 0.0 0.0 0.00 0.00 0.00 48 1017.4
20260902180056 98 0.0 0.0 0.00 0.00 0.00 48 1017.5
20260902174559 97 0.0 0.0 0.00 0.00 0.00 48 1017.7
20260902173059 97 0.0 0.0 0.00 0.00 0.00 47 1018.1
20260902171606 97 0.0 0.0 0.00 0.00 0.00 52 1018.2
20260902170057 96 0.0 0.0 0.00 0.00 0.00 52 1018.3
20260902164551 96 0.0 0.0 0.00 0.00 0.00 55 1018.5
20260902163123 96 0.0 0.0 0.00 0.00 0.00 54 1018.7
20260902161558 96 0.0 0.0 0.00 0.00 0.00 55 1018.8
20260902160054 95 0.0 0.0 0.00 0.00 0.00 56 1018.9
20260902154546 94 0.0 0.0 0.00 0.00 0.00 54 1018.9
20260902153104 93 0.0 0.0 0.00 0.00 0.00 56 1018.9
20260902151557 92 0.0 0.0 0.00 0.00 0.00 62 1018.9
20260902150054 92 0.0 0.0 0.00 0.00 0.00 64 1018.9
20260902144547 91 0.0 0.0 0.00 0.00 0.00 66 1018.8
20260902143056 89 0.0 0.0 0.00 0.00 0.00 70 1019.0
20260902141555 88 0.0 0.0 0.00 0.00 0.00 72 1018.9
20260902140052 85 0.0 0.0 0.00 0.00 0.00 76 1018.9
20260902134559 83 0.0 0.0 0.00 0.00 0.00 78 1018.9
20260902133053 83 0.0 0.0 0.00 0.00 0.00 78 1018.9
20260902131601 82 0.0 0.0 0.00 0.00 0.00 77 1018.9
20260902130049 81 0.0 0.0 0.00 0.00 0.00 70 1018.9
20260902124546 78 0.0 0.0 0.00 0.00 0.00 53 1018.8
20260902123115 77 0.0 0.0 0.00 0.00 0.00 52 1018.8
20260902121600 77 0.0 0.0 0.00 0.00 0.00 53 1018.5
20260902120104 77 0.0 0.0 0.00 0.00 0.00 55 1018.2
20260902114547 77 0.0 0.0 0.00 0.00 0.00 56 1018.3
20260902113054 77 0.0 0.0 0.00 0.00 0.00 56 1018.1
20260902111601 77 0.0 0.0 0.00 0.00 0.00 58 1017.9
20260902110048 77 0.0 0.0 0.00 0.00 0.00 60 1018.0
20260902104554 77 0.0 0.0 0.00 0.00 0.00 61 1017.7
20260902103052 77 0.0 0.0 0.00 0.00 0.00 61 1017.7
20260902101558 77 0.0 0.0 0.00 0.00 0.00 63 1017.6
20260902100101 78 0.0 0.0 0.00 0.00 0.00 65 1017.4
20260902094557 78 0.0 0.0 0.00 0.00 0.00 66 1017.3
20260902093053 78 0.0 0.0 0.00 0.00 0.00 67 1017.1
20260902091555 78 0.0 0.0 0.00 0.00 0.00 68 1017.0
20260902090046 78 0.0 0.0 0.00 0.00 0.00 69 1017.0
20260902084552 78 0.0 0.0 0.00 0.00 0.00 70 1017.0
20260902083046 78 0.0 0.0 0.00 0.00 0.00 72 1017.0
20260902081603 78 0.0 0.0 0.00 0.00 0.00 73 1016.9
20260902080057 79 0.0 0.0 0.00 0.00 0.00 74 1016.9
20260902074602 79 0.0 0.0 0.00 0.00 0.00 74 1016.9
20260902073050 79 0.0 0.0 0.00 0.00 0.00 76 1017.1
20260902071545 79 0.0 0.0 0.00 0.00 0.00 77 1017.0
20260902064557 79 0.0 0.0 0.00 0.00 0.00 78 1016.8
20260902063057 80 0.0 0.0 0.00 0.00 0.00 78 1017.0
20260902061557 80 0.0 0.0 0.00 0.00 0.00 78 1017.1
20260902060046 80 0.0 0.0 0.00 0.00 0.00 78 1017.1
20260902054557 80 0.0 0.0 0.00 0.00 0.00 78 1017.2
20260902053052 81 0.0 0.0 0.00 0.00 0.00 78 1017.2
20260902051601 81 0.0 0.0 0.00 0.00 0.00 78 1017.2
20260902050104 82 0.0 0.0 0.00 0.00 0.00 78 1017.0
20260902044557 82 0.0 0.0 0.00 0.00 0.00 76 1017.1
20260902043056 82 0.0 0.0 0.00 0.00 0.00 76 1017.3
20260902041558 83 0.0 0.0 0.00 0.00 0.00 75 1017.4
20260902040100 83 0.0 0.0 0.00 0.00 0.00 74 1017.4
20260902034557 83 0.0 0.0 0.00 0.00 0.00 74 1017.3
20260902033059 83 0.0 0.0 0.00 0.00 0.00 74 1017.2
20260902031611 84 0.0 0.0 0.00 0.00 0.00 72 1017.1
20260902030056 84 0.0 0.0 0.00 0.00 0.00 71 1017.0
20260902024607 85 0.0 0.0 0.00 0.00 0.00 70 1016.8
20260902023105 85 0.0 0.0 0.00 0.00 0.00 69 1016.8
20260902021610 86 0.0 0.0 0.00 0.00 0.00 68 1016.7
20260902020108 86 0.0 0.0 0.00 0.00 0.00 67 1016.4
20260902014549 86 0.0 0.0 0.00 0.00 0.00 65 1016.2
20260902013100 87 0.0 0.0 0.00 0.00 0.00 65 1016.0
20260902011557 88 0.0 0.0 0.00 0.00 0.00 63 1015.8
20260902010051 89 0.0 0.0 0.00 0.00 0.00 62 1015.6
20260902004554 90 0.0 0.0 0.00 0.00 0.00 60 1015.4
20260902003055 90 0.0 0.0 0.00 0.00 0.00 59 1015.3
20260902001557 91 0.0 0.0 0.00 0.00 0.00 57 1015.2
20260902000057 92 0.0 0.0 0.00 0.00 0.00 55 1015.3
20260901234555 92 0.0 0.0 0.00 0.00 0.00 54 1015.2
20260901233050 92 0.0 0.0 0.00 0.00 0.00 53 1015.3
20260901231601 93 0.0 0.0 0.00 0.00 0.00 53 1015.2
20260901230105 93 0.0 0.0 0.00 0.00 0.00 53 1015.4
20260901224552 93 0.0 0.0 0.00 0.00 0.00 52 1015.5
20260901223056 93 0.0 0.0 0.00 0.00 0.00 53 1015.4
20260901221558 93 0.0 0.0 0.00 0.00 0.00 52 1015.6
20260901220125 94 0.0 0.0 0.00 0.00 0.00 52 1015.5
20260901214552 94 0.0 0.0 0.00 0.00 0.00 51 1015.8
20260901213050 94 0.0 0.0 0.00 0.00 0.00 50 1015.8
20260901211556 94 0.0 0.0 0.00 0.00 0.00 49 1016.1